Content
SEND FEEDBACK

Daily
Averages
Monthly
Summary
South Africa

MOLEN DRIFT, SOUTH AFRICA


Home > Africa > South Africa
Elevation: 633 feet     Latitude: 34 00S     Longitude: 022 22E

WEATHER
 
SELECT A DAY
Number of Records: 172,121;   Date Range: 7/1/96 - 8/28/14
 
SHARE

PRINT THIS DATA

[ ← Previous Day ]
WEATHER ALMANAC - JANUARY 31, 2013
[ Next Day → ]
[ °C ]   °F
Weather ElementAverageHighLow
Temperature69.2 °F73.4 °F (2:00 pm)64.4 °F (11:00 pm)
Dewpoint63.7 °F66.2 °F (1:00 am)60.8 °F (1:00 pm)
Humidity82.1 %94 % (1:00 am)58 % (2:00 pm)
Barometer30.09 in30.12 in (8:00 am)30.06 in (1:00 am)
Wind Speed10.9 mph17.3 mph (4:00 pm)
Wind Gust27.6 mph (7:00 pm)
Weather ElementAverage
Visibility5.7 mi
Wind DirectionSE (134.8 °)

Weather ElementTotal
Precipitation---
Cooling Degree Days3.9 (Base 65)
Growing Degree Days18.9 (Base 50)
Averaged from 29 records on January 31, 2013
WEATHER CONDITIONS BREAKOUT
WIND DIRECTION BREAKOUT
WEATHER BY HOUR - JANUARY 31, 2013
[ °C ]   °F
Local TimeTemperatureDewpointHumidityBarometerVisibilityWind DirectionWind SpeedGust SpeedPrecipitationEventsConditions
1:00 AM68.0 °F66.2 °F94 %30.06 in6.2 miWSW (240°)5.8 mphDrizzle
2:00 AM67.0 °F65.0 °F92 %30.07 in3.0 miWest (270°)5.8 mph
2:00 AM68.0 °F64.4 °F88 %30.06 in2.5 miWest (280°)5.8 mphRainLight Rain
3:00 AM68.0 °F64.4 °F88 %30.06 in6.2 miSouth (190°)9.2 mphMostly Cloudy
4:00 AM66.2 °F64.4 °F94 %30.06 in1.8 miSouth (190°)9.2 mphRainLight Rain
5:00 AM67.0 °F64.0 °F88 %30.07 in3.0 miSouth (170°)8.1 mphOvercast
5:00 AM68.0 °F64.4 °F88 %30.06 in3.1 miSouth (170°)6.9 mphRainRain
6:00 AM68.0 °F64.4 °F88 %30.09 in3.1 miSSE (160°)10.4 mphRainRain Showers
7:00 AM68.0 °F66.2 °F94 %30.09 in3.1 miSSE (150°)9.2 mphRainRain Showers
8:00 AM69.0 °F65.0 °F83 %30.12 in5.0 miESE (110°)9.2 mphOvercast
8:00 AM68.0 °F64.4 °F88 %30.12 in5.0 miESE (110°)9.2 mphRainRain Showers
9:00 AM66.2 °F64.4 °F94 %30.12 in3.7 miEast (90°)6.9 mphRainLight Rain
10:00 AM69.8 °F64.4 °F83 %30.12 in6.2 miEast (90°)6.9 mphHaze
11:00 AM69.8 °F64.4 °F83 %30.12 in6.2 miESE (110°)12.7 mphMostly Cloudy
11:00 AM71.0 °F65.0 °F74 %30.12 in12.0 miESE (110°)13.8 mphHaze
12:00 PM71.6 °F64.4 °F78 %30.12 in5.0 miESE (110°)13.8 mphRainRain Showers
1:00 PM71.6 °F60.8 °F69 %30.12 in6.2 miEast (100°)12.7 mphMostly Cloudy
2:00 PM73.0 °F61.0 °F58 %30.12 in12.0 miESE (110°)12.7 mphMostly Cloudy
2:00 PM73.4 °F62.6 °F69 %30.12 in6.2 miESE (120°)15.0 mphMostly Cloudy
3:00 PM73.4 °F60.8 °F65 %30.09 in6.2 miESE (110°)15.0 mphMostly Cloudy
4:00 PM73.4 °F62.6 °F69 %30.09 in6.2 miESE (110°)17.3 mphMostly Cloudy
5:00 PM73.4 °F62.6 °F69 %30.09 in6.2 miEast (100°)15.0 mphMostly Cloudy
6:00 PM71.6 °F64.4 °F78 %30.09 in6.2 miEast (100°)15.0 mphMostly Cloudy
7:00 PM69.8 °F62.6 °F78 %30.06 in6.2 miESE (110°)16.1 mph27.6 mphPartly Cloudy
8:00 PM68.0 °F63.0 °F80 %30.09 in12.0 miESE (110°)15.0 mphScattered Clouds
8:00 PM68.0 °F62.6 °F83 %30.06 in6.2 miEast (100°)12.7 mphPartly Cloudy
9:00 PM68.0 °F62.6 °F83 %30.09 inEast (100°)9.2 mphClear
10:00 PM66.2 °F62.6 °F88 %30.09 inEast (90°)10.4 mphClear
11:00 PM64.4 °F62.6 °F94 %30.09 inEast (100°)8.1 mphClear
Hourly data recorded from FAGG, located miles away from Molen Drift, South Africa







STORIES FROM OUR PARTNERS